Location: Deurze
(52.9838°N, 6.6090°E)
Time: 19:28:43
(UTC+00:00)

Cosmos 1626 Rocket - Pass Details

Date: 11 March 2026
Orbit: 595 x 624 km, 82.5° (Epoch: 20 April)

Event Time Altitude Azimuth Distance (km) Brightness Sun altitude
Rises 17:59:12 0° 190° (S) 2,894 7.1 -5.2°
Reaches altitude 10° 18:01:25 10° 191° (S) 1,994 6.3 -5.5°
Maximum altitude 18:05:51 86° 282° (WNW) 635 3.7 -6.2°
Drops below altitude 10° 18:10:19 10° 10° (N) 2,011 6.1 -6.8°
Sets 18:12:34 0° 11° (NNE) 2,921 6.9 -7.2°
